Clifton, NJ (07015)

7:44 AM EDT on April 25, 2015 (GMT -0400)
Albion Park | | Change Station
CLOSE
Current Station
Personal Weather Station
Location: Clifton, NJ
Elevation: 215 ft
Nearby Weather Stations
Active Advisory: Freeze Warning Active Notice: Public Information Statement

Elev 215 ft 40.89 °N, 74.17 °W | Updated 4 minutes ago

Clear
Clear
37.9 °F
Feels Like 38 °F
N
0.0
Wind Variable Wind from NW
Gusts 3.0 mph

Today
High -- | Low -- °F
--% Chance of Precip.
Yesterday
High -- | Low -- °F
Precip. -- in
6:03 AM 7:46 PM
Waxing Crescent, 45% visible
Pressure 29.92 in
Visibility 10.0 miles
Clouds Clear
Windchill 38 °F
Dew Point 28 °F
Humidity 66%
Rainfall 0.00 in
Snow Depth Not available.
UV 0 out of 12
Pollen 11.20 out of 12
Air Quality Not available.
Flu Activity Local Activity
METAR KTEB 251051Z 29005KT 10SM CLR 03/M05 A2992 RMK AO2 SLP130 T00281050

More Conditions Fewer Conditions

Pressure 29.92 in
Visibility 10.0 miles
Clouds Clear
Windchill 38 °F
Dew Point 28 °F
Humidity 66%
Rainfall 0.00 in
Snow Depth Not available.
UV 0 out of 12
Pollen 11.20 out of 12
Air Quality Not available.
Flu Activity Local Activity
METAR KTEB 251051Z 29005KT 10SM CLR 03/M05 A2992 RMK AO2 SLP130 T00281050

More Conditions Fewer Conditions

10-Day Weather Forecast

Almanac

Astronomy

Apr. 25, 2015 Rise Set
Actual Time
Civil Twilight
Nautical Twilight
Astronomical Twilight
Moon
Length of Visible Light
Length of Day
Tomorrow will be .
, % of the Moon is Illuminated

Today's Extremes

State Highs State Lows

Community

WunderPhotos

Upload Photos

1,816,639 photos uploaded!

WunderBlogs® & News

Nearby

Air Quality

  Air Quality AQ Index Pollutant
Not available.

Snow Depth

Station Depth Elevation

Earthquake Activity

City Distance Mag. Time & Date
Minimum magnitude displayed is 2.5.

Coastal Water Temperatures

Place Temperature

Stations

Nearby Weather Stations

Station Location Temp. Windchill Dew Point Humidity Wind Precip. Elev Updated Type
                   
Freeze Warning
Statement as of 3:32 AM EDT on April 25, 2015

... Freeze warning remains in effect until 9 am EDT this morning...

* locations... coastal Connecticut... portions of northeastern New
Jersey and Suffolk County New York.

* Hazards... temperatures falling to freezing or just below.

* Temperatures... upper 20s to lower 30s.

* Timing... this morning.

* Impacts... the sub-freezing temperatures will kill crops and
other sensitive vegetation.